Weather History for KBKS - May, 2013

Change the Weather History Date:

Monday, May 6, 2013

  Actual Average (KNQI) Record (KNQI)
Temperature  
Mean Temperature 70 °F -  
Max Temperature 84 °F 85 °F 93 °F (2002)
Min Temperature 55 °F 68 °F 57 °F (2013)
Cooling Degree Days 4    
Growing Degree Days 20 (Base 50)    
Moisture  
Dew Point 56 °F    
Average Humidity 65    
Maximum Humidity 97    
Minimum Humidity 32    
Precipitation  
Precipitation 0.00 in - - ()
Sea Level Pressure  
Sea Level Pressure 30.03 in    
Wind  
Wind Speed 5 mph (ESE)    
Max Wind Speed 16 mph    
Max Gust Speed 23 mph    
Visibility 9 miles    
Events      
Averages and records for this station are not official NWS values.
T = Trace of Precipitation, MM = Missing Value Source: NWS Daily Summary

Daily Weather History Graph

Daily Weather History Graph

Search for Another Location

Airport or City:

Trip Planner

Search our weather history database for the weather conditions in past years. The results will help you decide how hot, cold, wet, or windy it might be!

Date:

Astronomy

May. 06, 2013 Rise Set
Actual Time 6:49 AM CDT 8:08 PM CDT
Civil Twilight 6:24 AM CDT 8:33 PM CDT
Nautical Twilight 5:55 AM CDT 9:03 PM CDT
Astronomical Twilight 5:24 AM CDT 9:33 PM CDT
Moon 4:35 AM CDT 5:24 PM CDT
Length of Visible Light 14h 08m
Length of Day
13h 19m
Waning Crescent, 11% of the Moon is Illuminated
May 6
Waning Crescent
May 9
New
May 17
First Quarter
May 24
Full
May 31
Last Quarter

Hourly Weather History & Observations

Time (CDT) Temp. Heat Index Dew Point Humidity Pressure Visibility Wind Dir Wind Speed Gust Speed Precip Events Conditions
12:15 AM 66.6 °F - 60.1 °F 80% 30.07 in 10.0 mi SSE 4.6 mph - N/A   Scattered Clouds
12:35 AM 65.8 °F - 59.9 °F 81% 30.07 in 10.0 mi SSE 3.5 mph - N/A   Clear
12:55 AM 65.3 °F - 59.9 °F 83% 30.07 in 10.0 mi SE 3.5 mph - N/A   Scattered Clouds
1:15 AM 64.9 °F - 59.5 °F 83% 30.07 in 10.0 mi Calm Calm - N/A   Clear
1:35 AM 63.5 °F - 59.4 °F 86% 30.07 in 10.0 mi East 4.6 mph - N/A   Clear
1:55 AM 63.0 °F - 59.4 °F 88% 30.06 in 10.0 mi East 3.5 mph - N/A   Clear
2:15 AM 63.0 °F - 59.4 °F 88% 30.05 in 10.0 mi Calm Calm - N/A   Scattered Clouds
2:35 AM 61.7 °F - 59.0 °F 91% 30.05 in 10.0 mi Calm Calm - N/A   Clear
2:55 AM 60.8 °F - 58.3 °F 91% 30.04 in 10.0 mi Calm Calm - N/A   Clear
3:15 AM 59.9 °F - 57.9 °F 93% 30.05 in 10.0 mi Calm Calm - N/A   Scattered Clouds
3:35 AM 59.4 °F - 57.4 °F 93% 30.05 in 10.0 mi East 3.5 mph - N/A   Scattered Clouds
3:55 AM 59.0 °F - 57.2 °F 94% 30.04 in 10.0 mi East 3.5 mph - N/A   Clear
4:15 AM 57.6 °F - 56.3 °F 96% 30.04 in 7.0 mi East 3.5 mph - N/A   Clear
4:35 AM 57.4 °F - 55.9 °F 95% 30.03 in 7.0 mi East 3.5 mph - N/A   Clear
4:55 AM 57.0 °F - 55.6 °F 95% 30.03 in 7.0 mi East 3.5 mph - N/A   Clear
5:15 AM 56.5 °F - 55.4 °F 96% 30.03 in 7.0 mi East 3.5 mph - N/A   Clear
5:35 AM 56.3 °F - 55.4 °F 97% 30.03 in 5.0 mi ESE 3.5 mph - N/A   Clear
5:55 AM 56.7 °F - 55.6 °F 96% 30.03 in 5.0 mi East 3.5 mph - N/A   Clear
6:15 AM 56.7 °F - 55.8 °F 97% 30.02 in 5.0 mi ESE 3.5 mph - N/A   Clear
7:15 AM 55.4 °F - 54.5 °F 97% 30.05 in 3.0 mi Calm Calm - N/A   Scattered Clouds
7:35 AM 55.8 °F - 55.0 °F 97% 30.06 in 0.2 mi Calm Calm - N/A   Overcast
7:55 AM 56.8 °F - 56.1 °F 97% 30.07 in 0.2 mi Calm Calm - N/A   Overcast
8:35 AM 59.9 °F - 59.2 °F 97% 30.08 in 0.8 mi East 3.5 mph - N/A   Overcast
8:55 AM 61.7 °F - 61.0 °F 97% 30.09 in 10.0 mi Calm Calm - N/A   Scattered Clouds
9:15 AM 63.1 °F - 62.2 °F 97% 30.09 in 10.0 mi ESE 6.9 mph - N/A   Clear
9:35 AM 67.3 °F - 61.3 °F 81% 30.10 in 10.0 mi SSE 8.1 mph - N/A   Scattered Clouds
9:55 AM 71.4 °F - 61.7 °F 71% 30.10 in 10.0 mi SE 5.8 mph - N/A   Scattered Clouds
10:15 AM 73.6 °F - 61.3 °F 65% 30.10 in 10.0 mi SE 8.1 mph - N/A   Scattered Clouds
10:35 AM 74.7 °F - 59.5 °F 59% 30.10 in 10.0 mi SSE 6.9 mph - N/A   Scattered Clouds
10:55 AM 74.3 °F - 57.7 °F 56% 30.09 in 10.0 mi South 8.1 mph - N/A   Scattered Clouds
11:15 AM 76.8 °F - 56.8 °F 50% 30.09 in 10.0 mi SE 9.2 mph - N/A   Scattered Clouds
11:35 AM 77.7 °F - 55.8 °F 47% 30.09 in 10.0 mi SSE 4.6 mph - N/A   Clear
11:55 AM 79.2 °F - 54.7 °F 43% 30.08 in 10.0 mi ESE 9.2 mph - N/A   Clear
12:15 PM 79.9 °F - 53.1 °F 39% 30.07 in 10.0 mi East 6.9 mph - N/A   Clear
12:35 PM 80.8 °F 80.5 °F 54.1 °F 40% 30.06 in 10.0 mi SE 9.2 mph - N/A   Clear
12:55 PM 80.6 °F 80.3 °F 53.6 °F 39% 30.05 in 10.0 mi East 10.4 mph 18.4 mph N/A   Clear
1:15 PM 82.6 °F - 52.3 °F 35% 30.04 in 10.0 mi East 11.5 mph 16.1 mph N/A   Clear
1:35 PM 81.9 °F - 51.6 °F 35% 30.04 in 10.0 mi ENE 16.1 mph - N/A   Clear
1:55 PM 80.8 °F - 49.6 °F 34% 30.02 in 10.0 mi ENE 11.5 mph 17.3 mph N/A   Clear
2:15 PM 80.6 °F - 50.2 °F 35% 30.00 in 10.0 mi East 10.4 mph - N/A   Scattered Clouds
2:35 PM 84.0 °F - 52.0 °F 33% 30.00 in 10.0 mi ENE 10.4 mph 18.4 mph N/A   Scattered Clouds
2:55 PM 83.5 °F - 52.3 °F 34% 30.00 in 10.0 mi East 8.1 mph - N/A   Clear
3:15 PM 84.2 °F - 52.3 °F 33% 29.98 in 10.0 mi East 15.0 mph 23.0 mph N/A   Scattered Clouds
3:35 PM 82.2 °F - 50.9 °F 34% 29.98 in 10.0 mi East 13.8 mph 19.6 mph N/A   Clear
3:55 PM 82.2 °F - 50.5 °F 33% 29.97 in 10.0 mi East 11.5 mph 20.7 mph N/A   Clear
4:15 PM 84.2 °F - 50.9 °F 32% 29.97 in 10.0 mi East 16.1 mph 19.6 mph N/A   Clear
4:35 PM 82.8 °F - 52.0 °F 34% 29.97 in 10.0 mi East 13.8 mph 19.6 mph N/A   Clear
4:55 PM 81.7 °F - 52.0 °F 36% 29.96 in 10.0 mi ESE 9.2 mph 21.9 mph N/A   Clear
5:15 PM 80.4 °F - 51.3 °F 36% 29.96 in 10.0 mi ESE 13.8 mph - N/A   Clear
5:35 PM 80.8 °F - 50.2 °F 34% 29.96 in 10.0 mi East 11.5 mph 17.3 mph N/A   Clear
5:55 PM 80.6 °F - 50.7 °F 35% 29.96 in 10.0 mi East 10.4 mph - N/A   Clear
6:15 PM 80.2 °F - 52.3 °F 38% 29.96 in 10.0 mi East 15.0 mph 19.6 mph N/A   Clear
6:35 PM 79.3 °F - 52.2 °F 39% 29.96 in 10.0 mi East 16.1 mph 19.6 mph N/A   Clear
6:55 PM 77.9 °F - 53.2 °F 42% 29.96 in 10.0 mi East 12.7 mph 17.3 mph N/A   Clear
7:15 PM 77.2 °F - 54.1 °F 45% 29.97 in 10.0 mi East 11.5 mph - N/A   Clear
7:35 PM 76.1 °F - 55.8 °F 49% 29.97 in 10.0 mi ESE 9.2 mph - N/A   Clear
7:55 PM 75.2 °F - 57.2 °F 53% 29.98 in 10.0 mi East 9.2 mph - N/A   Clear
8:15 PM 74.3 °F - 57.4 °F 55% 29.99 in 10.0 mi ESE 8.1 mph - N/A   Clear
8:35 PM 73.4 °F - 57.2 °F 57% 30.00 in 10.0 mi ESE 6.9 mph - N/A   Clear
8:55 PM 72.5 °F - 58.1 °F 60% 30.01 in 10.0 mi ESE 5.8 mph - N/A   Clear
9:15 PM 71.6 °F - 58.5 °F 63% 30.01 in 10.0 mi ESE 4.6 mph - N/A   Clear
9:35 PM 71.2 °F - 59.0 °F 65% 30.02 in 10.0 mi ESE 4.6 mph - N/A   Clear
9:55 PM 70.7 °F - 59.4 °F 67% 30.02 in 10.0 mi ESE 4.6 mph - N/A   Clear
10:15 PM 70.0 °F - 59.7 °F 70% 30.03 in 10.0 mi SE 5.8 mph - N/A   Clear
10:35 PM 69.1 °F - 59.9 °F 72% 30.03 in 10.0 mi East 3.5 mph - N/A   Clear
10:55 PM 68.2 °F - 60.1 °F 75% 30.04 in 10.0 mi ESE 3.5 mph - N/A   Scattered Clouds
11:15 PM 67.6 °F - 60.4 °F 78% 30.04 in 10.0 mi SSE 4.6 mph - N/A   Scattered Clouds
11:35 PM 68.0 °F - 60.4 °F 77% 30.04 in 10.0 mi SSE 6.9 mph - N/A   Scattered Clouds
11:55 PM 67.6 °F - 60.4 °F 78% 30.03 in 10.0 mi SE 6.9 mph - N/A   Mostly Cloudy